Regional Weather Roundup
Issued by NWS

Home | Current Version | Previous Version | Graphics & Text | Print | Product List | Glossary On
Versions: 1 2 3 4 5 6 7 8 9 10 11 12 13 14 15 16 17 18 19 20 21 22 23 24 25 26 27 28 29 30 31 32 33 34 35 36 37 38 39 40 41 42 43 44 45 46 47 48 49 50
000
ASUS45 KPSR 231300
RWRAZ

PRELIMINARY ARIZONA REGIONAL HOURLY WEATHER ROUNDUP
NATIONAL WEATHER SERVICE PHOENIX AZ
600 AM MST TUE SEP 23 2014

NOTE: FAIR INDICATES FEW OR NO CLOUDS BELOW 12,000 FEET WITH NO
SIGNIFICANT WEATHER AND/OR OBSTRUCTIONS TO VISIBILITY.

AZZ001>003-036-231400-
NORTHWEST ARIZONA

CITY           SKY/WX    TMP DP  RH WIND       PRES   REMARKS
KINGMAN        CLEAR     58  37  45 S3        30.11R
$$

AZZ004>008-015-016-018-231400-
NORTH CENTRAL ARIZONA

CITY           SKY/WX    TMP DP  RH WIND       PRES   REMARKS
GRAND CANYON   CLEAR     37  35  92 CALM      30.32R
PRESCOTT       CLEAR     50  38  63 SW3       30.22R
FLAGSTAFF      CLEAR     42  39  89 CALM      30.34R
PAYSON         CLEAR     64  55  72 E5        30.23S
PAGE           CLEAR     65  44  46 CALM      30.16R
$$

AZZ009>014-017-231400-
NORTHEAST ARIZONA

CITY           SKY/WX    TMP DP  RH WIND       PRES   REMARKS
WINSLOW        NOT AVBL
SAINT JOHNS    CLEAR     58  56  93 CALM      30.26R
WINDOW ROCK    CLEAR     48  44  86 CALM      30.32S
$$

AZZ023-231400-
GREATER PHOENIX AREA

CITY           SKY/WX    TMP DP  RH WIND       PRES   REMARKS
PHOENIX        PTCLDY    78  58  49 CALM      29.92R
GLENDALE         N/A     73  50  43 N3        29.94
LUKE AFB       CLEAR     74  48  40 N6        29.92R
DEER VALLEY    CLEAR     76  47  35 CALM      29.94R
SCOTTSDALE     CLEAR     76  53  44 CALM      29.96R
MESA-FALCON    PTCLDY    79  54  41 N12       29.94
MESA-GATEWAY   CLEAR     77  59  53 S3        29.96R
CHANDLER       PTCLDY    73  59  60 CALM      29.94
$$

AZZ027-028-231400-
SOUTHWEST MARICOPA COUNTY AND PINAL COUNTY

CITY           SKY/WX    TMP DP  RH WIND       PRES   REMARKS
CASA GRANDE    CLEAR     72  52  49 CALM      29.95S
$$

AZZ503-504-507>509-231400-
SOUTHEAST ARIZONA

CITY           SKY/WX    TMP DP  RH WIND       PRES   REMARKS
TUCSON         CLEAR     75  63  66 S8        30.04R
DAVIS-MONTHAN  CLEAR     73  65  74 SE6       30.02S
RYAN FIELD       N/A     73  61  64 SE6       30.03
NOGALES        CLEAR     67  62  84 CALM      30.10R
SIERRA VISTA   PTCLDY    64  63  94 CALM      30.17R
SAFFORD        CLEAR     69  64  84 E5        30.10R
$$

AZZ020-021-025-026-031-231400-
SOUTHWEST ARIZONA

CITY           SKY/WX    TMP DP  RH WIND       PRES   REMARKS
YUMA           CLEAR     82  66  58 NE6       29.87R
$$

CAZ031-033-041-043-047-048-061-231400-
SOUTHERN CALIFORNIA

CITY           SKY/WX    TMP DP  RH WIND       PRES   REMARKS
DOWNTOWN L.A.  CLEAR     64  59  83 CALM      29.94S
L.A. AIRPORT   PTCLDY    65  62  89 CALM      29.95S
SAN DIEGO      MOCLDY    67  62  84 NE6       29.95R
BURBANK        CLEAR     61  53  75 CALM      29.95S
ONTARIO        CLEAR     65  59  81 CALM      29.96R
RIVERSIDE      CLEAR     63  59  87 CALM      29.96S
PALM SPRINGS   CLEAR     78  41  26 NW3       29.91S
EL CENTRO NAS  CLEAR     76  51  41 NW7       29.85R
IMPERIAL       CLEAR     74  60  61 W5        29.85R
BLYTHE         CLEAR     73  51  46 N6        29.89R
$$

NVZ020-UTZ003-231400-
SOUTHERN NEVADA-UTAH

CITY           SKY/WX    TMP DP  RH WIND       PRES   REMARKS
LAS VEGAS      NOT AVBL
SALT LAKE CITY PTCLDY    59  52  77 SE6       30.13R
$$

NMZ009-TXZ055-231400-
NEW MEXICO-WEST TEXAS

CITY           SKY/WX    TMP DP  RH WIND       PRES   REMARKS
ALBUQUERQUE    PTCLDY    60  55  83 CALM      30.26S
EL PASO        PTCLDY    66  63  90 NE3       30.17R
$$


........................KEY........................
SKY/WX - SKY CONDITION/WEATHER
TMP    - TEMPERATURE IN FAHRENHEIT
DP     - DEW POINT IN FAHRENHEIT
RH     - RELATIVE HUMIDITY IN PERCENT
WIND   - DIRECTION AND SPEED IN MILES PER HOUR (MPH)
VRB    - VARIABLE WIND DIRECTION
PRES   - MEAN SEA LEVEL PRESSURE IN INCHES OF MERCURY
         F - FALLING PRESSURE   R - RISING PRESSURE
         S - STEADY PRESSURE
VSB    - VISIBILITY IN MILES
HX     - HEAT INDEX IN FAHRENHEIT
WCI    - WIND CHILL INDEX IN FAHRENHEIT
TC     - TEMPERATURE IN CELSIUS WHICH IS ALSO KNOWN AS
         TEMPERATURE IN CENTIGRADE
AFB    - AIR FORCE BASE
         LUKE AFB IS LUKE AIR FORCE BASE
         DAVIS-MONTHAN IS DAVIS-MONTHAN AIR FORCE BASE
NAS    - NAVAL AIR STATION
         EL CENTRO NAS IS EL CENTRO NAVAL AIR STATION
N/A    - NOT AVAILABLE



USA.gov is the U.S. government's official web portal to all federal, state and local government web resources and services.